User: anonymous   Login
Location: Hebron
(33.0265°N, 96.8636°W)
Time: 23:09:33
(UTC+00:00)
Language:

CZ-4B R/B - Orbit

View from above orbital plane
View from above orbital plane
View from above satellite
View from above satellite

Ground track
Ground track

The orbit data is extracted from the following two-line orbital elements,

1 29093U 06015B   22146.54229390  .00026110  00000-0  33721-3 0  9993
2 29093  97.6047   4.6248 0038595 263.4115  96.2746 15.58032606896142
Epoch (UTC): 26 May 2022 13:00:54
Eccentricity: 0.0038595
inclination: 97.6047°
perigee height: 367 km
apogee height: 419 km
right ascension of ascending node: 4.6248°
argument of perigee: 263.4115°
revolutions per day: 15.58032606
mean anomaly at epoch: 96.2746°
orbit number at epoch: 89614

The dashed part of the orbit path shows where the satellite is in the earth's shadow,  

DLR